Weather in Dezful

Iran     32°22′53″N   48°24′26″E
temp.,
°C
wind,
m/s
gust,
m/s
humid.,
%
clouds,
%
prec.,
mm/h
press.,
hPa
HPBL,
m
14 april, wed
wed1401:30+24ese46385 0.0 101381
04:30+22e224484 0.0 101314
07:30+23ne224440 0.0 101313
10:30+27s12320 0.0 1014990
13:30+31ssw44200 0.0 10122385
16:30+32w861837 0.0 10103154
19:30+27w58898 0.0 1011129
22:30+21wnw11165 0.0 101311
15 april, thu
thu1501:30+19sse22200 0.0 101211
04:30+18ese33200 0.0 101212
07:30+18ese22220 0.0 101414
10:30+25se23130 0.0 1014602
13:30+29s441015 0.0 10131249
16:30+30ssw22831 0.0 10101617
19:30+27w3313100 0.0 101012
22:30+24w221491 0.0 101117
16 april, fri
fri1601:30+20ene11180 0.0 101011
04:30+19e11180 0.0 101011
07:30+19wnw11230 0.0 101111
10:30+27sw11120 0.0 1012492
13:30+31w44105 0.0 10111920
16:30+32w56899 0.0 10092503
19:30+28w34135 0.0 100921
22:30+24n331815 0.0 101024
17 april, sat
sat1701:30+24nne3317100 0.0 100912
04:30+21ne2220100 0.0 100911
07:30+22nne2220100 0.0 101111
10:30+29n1213100 0.0 1012508
13:30+32sw3210100 0.0 10111719
16:30+33w339100 0.0 10092128
19:30+29wsw2313100 0.0 101011
22:30+25ne2215100 0.0 101111
18 april, sun
sun1801:30+24ne111799 0.0 101111
04:30+22ne11190 0.0 101111
07:30+23ene11220 0.0 101211
10:30+31s11110 0.0 1013632
13:30+34sw33104 0.0 10121878
16:30+36wsw32105 0.0 10102407
19:30+32sw23144 0.0 101012
22:30+27n22180 0.0 101111